User: anonymous   Login
Location: Observatoire
(46.1952°N, 5.3391°E)
Time: 23:28:53
(UTC+02:00)
Language:

UWE-3 - Orbit

View from above orbital plane
View from above orbital plane
View from above satellite
View from above satellite

Ground track
Ground track

The orbit data is extracted from the following two-line orbital elements,

1 39446U 13066AG  24114.83614916  .00011201  00000-0  12619-2 0  9998
2 39446  97.7774  65.7785 0062568  39.6237 320.9526 14.85350860560631
Epoch (UTC): 23 April 2024 20:04:03
Eccentricity: 0.0062568
inclination: 97.7774°
perigee height: 569 km
apogee height: 656 km
right ascension of ascending node: 65.7785°
argument of perigee: 39.6237°
revolutions per day: 14.85350860
mean anomaly at epoch: 320.9526°
orbit number at epoch: 56063

The dashed part of the orbit path shows where the satellite is in the earth's shadow,  

DLR